Theta_e
331 337 332 327 325 325 325 324 324 324 325 325 324 321 319 317 314 310 308 308 306 304 303 304 302 300 298 298 297 296 296 294 291 292 295 296 297 296 298 298 301 300 300
337 338 332 328 327 325 324 323 323 323 325 326 324 320 318 316 315 311 310 308 306 303 305 303 303 303 297 297 295 294 294 293 292 291 292 294 294 296 297 297 299 302 299
336 337 334 330 326 325 324 323 324 324 325 325 323 319 316 314 314 312 311 308 305 305 305 304 304 301 298 295 293 293 293 296 293 292 291 292 294 295 295 296 297 297 301
333 334 333 332 330 325 325 325 324 323 324 324 321 318 316 314 314 312 311 308 306 307 306 305 303 300 295 295 293 292 293 293 292 293 292 291 292 293 293 292 294 294 295
335 333 333 333 332 327 325 325 324 324 324 323 320 318 316 313 312 310 309 307 305 305 305 303 300 299 303 299 296 293 293 292 293 292 290 290 290 290 290 292 291 292 293
335 333 333 332 330 327 325 323 324 324 323 322 320 317 313 313 307 308 308 306 305 305 301 301 303 307 306 306 305 304 299 296 293 292 290 289 289 289 290 291 290 290 289
335 334 333 331 330 326 325 323 323 322 322 320 318 315 312 311 305 305 307 307 305 304 302 302 300 299 298 298 304 306 307 304 299 293 291 290 290 291 291 290 290 289 290
334 334 332 331 330 327 325 323 324 322 318 316 314 313 311 309 304 303 305 306 305 305 304 301 297 294 294 297 297 295 294 295 296 297 293 292 292 293 292 293 292 291 292
333 332 332 331 329 327 325 325 321 318 316 314 311 307 309 305 303 303 305 306 305 303 304 301 297 294 297 299 296 293 291 292 298 301 299 299 299 298 297 293 292 291 290
334 333 333 331 329 327 327 324 321 318 315 312 307 307 306 304 301 302 306 306 304 303 303 300 300 295 297 298 294 291 290 290 291 292 292 294 294 295 301 294 293 291 289
337 335 334 331 329 328 328 323 318 316 311 307 305 304 304 305 304 302 303 306 304 302 300 298 295 297 296 296 294 292 291 291 292 292 291 291 291 292 292 292 293 294 291
330 333 332 332 330 327 321 317 316 310 306 304 301 302 305 305 303 301 300 303 303 303 298 296 295 295 294 294 293 294 294 295 291 291 290 290 290 291 293 293 293 294 295
324 325 329 328 324 321 317 313 310 308 305 303 301 300 299 303 304 300 299 298 298 297 299 297 295 294 294 294 295 295 295 291 290 291 290 290 291 292 292 294 295 294 294
318 319 320 318 316 316 314 313 309 307 305 302 301 299 298 298 300 301 301 299 299 297 298 297 296 294 293 293 293 294 293 292 291 291 291 291 293 293 292 292 293 292 291
313 314 313 313 314 313 313 313 310 309 306 303 302 300 298 297 299 300 299 300 298 294 294 293 290 290 289 290 291 292 293 293 292 292 292 292 291 292 292 292 292 291 290
311 312 312 313 312 312 310 306 297 301 298 298 299 301 301 298 296 294 294 295 293 293 293 291 291 290 289 290 291 292 293 295 293 293 293 292 291 292 291 292 292 291 291
311 310 311 310 311 309 308 306 300 297 296 296 295 296 297 296 294 293 293 293 291 292 291 291 291 290 291 292 293 293 294 295 295 294 294 293 292 292 291 292 292 292 292
310 304 309 310 310 308 307 305 304 303 301 299 295 297 293 293 292 292 292 292 291 291 290 291 292 294 295 296 296 295 295 294 293 294 293 293 292 292 293 292 292 291 294
308 307 308 308 308 307 307 305 305 304 302 300 298 297 294 292 291 291 291 295 293 292 290 291 293 294 294 295 295 295 293 293 294 294 294 294 294 292 292 292 292 289 291
307 303 303 307 306 306 306 304 304 303 301 299 299 299 295 295 295 292 292 293 293 293 293 293 293 293 293 294 294 294 294 293 293 294 294 293 294 293 293 293 293 295 296
306 304 297 306 306 306 305 304 304 303 301 301 300 298 292 298 297 294 293 293 293 293 293 293 293 293 293 293 293 293 294 295 294 295 294 294 294 294 294 294 294 298 297
306 305 305 305 305 304 303 303 302 301 301 300 299 293 288 299 296 295 295 295 295 295 295 295 294 294 295 295 295 295 296 296 295 295 295 295 294 295 294 294 296 298 296
306 305 304 304 303 297 301 302 302 301 300 299 299 293 293 297 296 296 296 296 295 295 294 295 295 295 296 296 297 298 297 297 298 298 297 296 295 294 294 294 295 296 295
306 305 304 303 303 302 301 301 301 296 299 298 297 294 294 295 295 296 296 295 296 295 295 295 296 296 295 296 297 297 299 299 299 299 298 297 296 293 294 293 294 297 296
305 305 304 303 302 302 301 301 301 300 299 299 298 297 296 296 296 296 296 294 294 295 295 296 296 296 296 296 296 297 295 290 296 294 297 297 296 295 294 295 295 296 296
305 305 305 304 303 302 301 301 301 300 300 301 301 301 299 297 297 297 297 297 297 297 298 298 299 299 299 299 298 295 290 289 292 289 296 296 296 296 295 297 297 296 296
Wind_Speed
14 13 13 12 13 13 13 13 12 9 12 13 14 14 13 12 12 9 8 8 8 7 6 7 6 4 3 4 3 3 4 3 4 2 2 2 2 3 5 5 5 5 5
12 13 13 13 14 13 13 13 13 13 12 13 13 14 13 13 13 12 12 10 11 9 8 8 8 5 5 4 4 5 3 2 4 3 1 2 1 2 4 4 5 5 5
12 13 12 13 13 13 13 12 13 13 13 14 14 15 14 14 13 12 12 12 11 11 10 9 8 7 5 3 3 5 3 2 2 2 1 1 2 2 4 3 4 5 5
13 13 14 15 15 14 13 14 15 14 15 14 15 15 15 14 14 14 13 13 12 11 10 9 9 8 8 7 5 5 3 4 1 1 2 1 2 3 1 2 5 2 4
15 15 16 15 14 14 14 15 14 15 15 15 15 15 15 13 11 14 14 14 13 10 7 8 8 10 13 9 5 5 5 3 2 3 0 1 2 3 2 2 2 3 4
18 17 14 14 15 15 15 14 15 16 15 15 16 17 15 11 18 20 18 14 13 13 10 6 8 12 9 9 7 7 7 6 3 3 2 2 2 3 2 1 2 3 4
17 16 16 16 16 17 16 16 17 16 15 16 16 16 17 14 21 19 17 10 10 11 7 7 6 4 7 6 5 5 7 6 6 6 4 4 2 4 0 2 2 2 3
17 17 17 19 19 17 18 16 13 13 15 14 13 13 12 9 18 19 17 14 12 13 10 9 8 7 6 7 6 6 3 2 3 4 5 5 6 3 4 3 2 3 5
20 21 21 20 19 17 15 16 11 10 11 11 11 12 13 13 24 23 17 13 13 12 10 7 8 6 9 10 7 6 3 2 3 2 5 7 5 5 7 2 3 4 4
17 21 21 22 20 19 21 19 21 15 12 11 11 12 17 17 18 16 15 10 12 9 9 7 13 9 10 11 7 6 6 3 1 2 2 2 5 5 5 2 3 1 1
13 12 15 21 22 18 17 13 15 15 13 13 13 12 17 20 21 24 20 11 11 9 8 6 4 11 12 11 9 6 5 4 3 2 1 3 3 4 2 2 3 3 1
4 10 17 19 16 13 17 14 14 15 15 14 14 12 11 14 20 20 17 10 14 10 8 5 6 13 12 11 8 7 6 4 3 2 2 3 2 3 3 3 2 4 4
5 11 7 16 14 15 16 16 13 15 14 13 13 12 11 11 12 16 19 14 9 5 6 9 11 12 11 8 8 7 6 3 2 1 2 0 2 2 4 3 3 3 3
14 13 10 11 12 11 10 11 11 11 12 12 12 12 11 9 9 8 8 9 9 7 8 6 8 8 6 5 4 4 4 4 4 3 2 2 2 1 1 1 2 3 3
8 8 6 10 8 10 9 10 11 12 16 16 13 15 16 13 15 16 15 12 9 7 7 4 3 4 4 4 3 4 3 3 4 3 2 2 2 2 2 0 1 1 0
8 3 4 2 3 5 7 7 10 8 13 14 22 18 9 11 20 15 16 14 13 16 4 4 4 5 6 6 5 4 3 5 4 4 2 3 3 3 2 2 1 1 2
5 4 2 4 5 7 7 9 8 9 15 15 16 17 17 21 22 18 17 16 15 10 4 4 5 6 6 6 5 5 4 5 3 4 4 5 4 4 3 3 2 2 3
7 7 5 4 4 5 7 8 8 11 12 9 11 16 17 21 20 20 17 13 5 1 3 4 5 6 5 6 5 5 4 4 5 5 5 5 5 4 3 4 3 3 4
6 5 5 4 4 5 6 7 8 9 10 10 8 8 11 15 17 16 19 10 7 6 4 4 5 6 5 5 5 4 5 5 5 4 5 5 5 4 5 5 5 6 4
6 9 7 6 6 6 6 7 7 9 10 10 10 9 8 8 7 6 6 6 7 7 7 7 5 5 5 5 5 5 4 4 4 5 5 5 5 4 5 5 5 5 4
4 5 6 5 6 7 7 8 8 8 8 9 9 9 11 9 8 7 7 5 6 7 8 8 7 6 5 5 5 5 4 4 5 5 5 5 5 5 5 5 5 5 5
6 5 5 5 5 6 6 7 7 8 9 9 8 6 12 7 7 7 7 7 8 8 7 7 6 6 6 6 6 5 5 5 5 5 6 5 5 5 4 4 5 5 2
6 7 5 5 6 6 6 6 7 7 7 8 9 8 8 8 7 8 9 8 8 8 6 6 6 5 6 6 6 7 6 7 7 6 8 7 6 5 5 5 5 4 4
7 8 7 6 6 6 6 6 6 7 8 8 8 8 8 7 7 8 7 6 6 6 6 7 7 9 7 7 6 7 7 7 6 7 11 7 7 6 4 5 5 6 5
5 5 6 5 6 6 6 6 6 6 7 7 7 7 7 7 6 6 5 5 5 6 8 8 8 10 11 11 9 10 10 12 9 8 5 7 8 8 6 6 6 6 6
5 5 5 5 6 6 6 7 7 8 8 6 6 4 6 6 6 6 6 7 7 8 9 8 10 14 13 11 13 14 11 10 9 11 8 6 7 7 6 9 9 4 6
Wind_Direction
177 173 165 164 168 163 171 175 182 169 168 175 163 161 157 157 160 156 144 145 134 134 135 128 120 134 125 108 104 85 82 96 122 309 249 293 321 332 344 345 348 343 328
177 169 170 167 172 173 175 175 165 175 171 172 170 164 163 165 166 154 154 148 145 149 148 137 136 128 108 119 103 102 100 94 120 141 265 297 307 312 286 339 345 338 332
175 172 177 174 174 179 177 171 171 171 174 170 173 170 169 169 167 163 155 153 155 157 153 147 147 142 132 136 123 112 116 89 86 141 254 346 282 321 319 325 335 339 330
176 180 182 187 182 175 170 172 175 174 170 173 179 172 173 173 169 163 157 158 156 159 148 151 147 152 149 145 135 130 132 128 135 106 56 309 266 296 308 322 340 336 319
185 187 194 185 182 174 175 178 175 177 179 179 174 175 175 174 166 159 156 159 153 142 132 144 139 154 149 151 138 162 151 144 161 87 31 342 311 337 326 320 295 306 300
187 191 184 178 174 179 178 173 174 179 181 176 181 175 172 176 157 155 157 155 144 135 158 159 153 145 133 130 155 176 179 159 145 142 177 226 261 244 284 336 283 12 319
190 181 179 178 181 180 173 171 179 181 175 180 178 176 177 173 153 139 133 125 130 130 161 154 136 136 127 123 126 116 129 143 151 157 179 217 242 215 95 296 267 215 252
189 182 175 178 187 181 173 167 173 170 174 174 175 177 173 161 141 128 122 129 134 146 162 180 145 150 148 142 135 125 118 158 145 193 196 223 233 250 196 204 247 290 282
192 188 183 179 177 169 177 160 153 173 169 168 157 150 156 140 129 134 135 143 139 154 153 205 144 148 158 149 144 144 173 212 292 274 233 241 274 264 196 146 10 39 316
235 204 185 180 179 173 170 159 165 177 164 149 140 151 149 140 132 125 130 132 151 155 185 170 156 156 165 154 148 155 158 207 328 18 24 19 9 23 141 137 144 58 275
263 232 228 176 168 175 165 159 154 150 142 143 140 144 148 145 146 148 159 165 152 170 169 169 159 167 164 155 142 170 173 172 48 70 13 30 357 5 32 1 181 172 179
260 272 218 213 147 150 146 139 149 138 140 144 140 144 149 149 153 159 154 152 154 168 164 163 170 180 164 156 163 189 158 136 95 94 71 38 349 331 342 346 249 222 223
18 219 255 184 127 141 145 143 143 146 146 152 153 153 153 163 155 162 138 147 163 137 147 166 178 187 158 168 184 180 157 130 124 134 102 260 241 260 310 326 303 326 303
34 339 159 150 127 138 133 140 149 150 150 154 156 150 152 156 163 163 156 161 167 137 155 171 186 162 151 155 165 191 181 167 174 188 158 234 283 336 311 307 322 343 358
69 8 334 91 129 136 142 158 165 174 163 161 167 158 154 175 180 179 161 177 172 150 126 118 136 128 162 185 191 199 180 170 180 191 168 231 257 252 261 289 255 349 358
79 72 0 51 146 149 138 102 36 135 144 157 157 159 159 134 150 163 160 165 148 141 118 153 154 164 184 188 186 207 196 208 203 189 200 203 227 235 245 274 226 209 252
97 126 149 229 178 158 153 145 126 70 98 119 127 138 153 153 157 158 161 162 155 134 137 156 160 177 193 183 180 183 211 218 178 189 199 213 220 247 222 252 268 251 271
145 160 164 201 199 172 159 142 146 144 143 148 143 149 139 151 154 156 160 128 132 23 148 160 174 189 194 183 182 192 225 206 206 190 192 207 210 226 232 251 254 253 265
160 162 169 173 168 172 148 146 149 146 140 140 130 119 145 150 150 151 154 172 170 180 189 187 182 193 192 190 185 201 213 204 195 173 201 202 216 206 237 246 254 244 243
173 156 159 160 151 148 151 148 142 148 145 152 154 150 138 128 154 154 175 162 161 179 192 203 203 197 197 194 188 195 208 212 208 195 215 196 221 199 232 246 245 251 248
150 147 162 154 165 158 159 161 159 152 153 154 149 143 147 156 155 154 168 184 178 187 195 200 197 196 194 193 191 202 204 217 205 205 206 204 207 212 222 236 250 240 243
147 157 168 155 143 158 157 146 145 141 140 141 136 126 144 166 156 166 178 186 197 204 198 196 197 198 197 196 193 196 198 212 211 200 207 227 217 218 224 229 240 247 241
145 156 159 154 146 137 133 131 141 137 147 146 149 142 166 175 171 183 194 194 191 195 189 188 202 203 201 205 193 191 194 210 215 206 213 215 220 221 205 228 234 240 224
151 160 159 150 151 148 146 142 142 149 154 155 151 148 159 169 178 192 193 188 189 195 194 200 211 212 214 208 201 203 207 219 202 211 212 212 215 215 209 219 226 226 228
138 151 150 150 142 145 141 140 145 154 162 148 155 156 164 169 174 186 182 178 186 192 200 204 209 218 218 217 212 211 214 214 209 205 197 204 214 209 206 211 214 219 222
138 143 135 133 144 156 162 167 164 164 154 135 115 122 159 165 188 204 197 189 204 207 208 208 218 221 220 224 227 225 218 213 210 212 205 197 216 222 211 224 228 200 162